FAD3052 MDSI-MDSI

Flight info

Callsign FAD3052
Flight time 0h 1m
Altitude 800
Route VFR
Aircraft B06/L-SFG/C

Departure

Time 2026-04-22 18:11
Airport San Isidro Air Base (MDSI)

Arrival

Time 2026-04-22 18:13
Airport San Isidro Air Base (MDSI)
Time Latitude Longitude Altitude Speed Heading
2026-04-22 18:07 18.50232 -69.76813 115 ft 0 kts 232°
2026-04-22 18:08 18.50218 -69.76787 151 ft 26 kts 118°
2026-04-22 18:08 18.50020 -69.76609 151 ft 30 kts 160°
2026-04-22 18:08 18.49921 -69.76573 127 ft 8 kts 163°
2026-04-22 18:08 18.49900 -69.76573 135 ft 2 kts 194°
2026-04-22 18:09 18.49896 -69.76573 118 ft 0 kts 198°
2026-04-22 18:09 18.49895 -69.76573 116 ft 1 kts 198°
2026-04-22 18:09 18.49894 -69.76573 115 ft 0 kts 197°
2026-04-22 18:10 18.49850 -69.76593 130 ft 33 kts 199°
2026-04-22 18:11 18.49478 -69.76886 388 ft 79 kts 231°
2026-04-22 18:11 18.49364 -69.77514 674 ft 100 kts 290°
2026-04-22 18:11 18.49980 -69.77868 884 ft 114 kts 354°
2026-04-22 18:11 18.50660 -69.77867 1098 ft 90 kts 14°
2026-04-22 18:12 18.51134 -69.77554 1001 ft 77 kts 65°
2026-04-22 18:12 18.51123 -69.77023 894 ft 73 kts 113°
2026-04-22 18:12 18.50791 -69.76650 776 ft 69 kts 146°
2026-04-22 18:12 18.50331 -69.76574 477 ft 67 kts 175°
2026-04-22 18:13 18.50008 -69.76571 230 ft 24 kts 171°
2026-04-22 18:13 18.49910 -69.76570 121 ft 4 kts 190°
2026-04-22 18:13 18.49904 -69.76570 114 ft 0 kts 193°
2026-04-22 18:30 18.49194 -69.77097 762 ft 93 kts 221°
2026-04-22 18:30 18.48922 -69.77719 1199 ft 104 kts 275°
2026-04-22 18:31 18.49487 -69.78182 1557 ft 108 kts
2026-04-22 18:31 18.49607 -69.77543 1511 ft 104 kts 110°
2026-04-22 18:31 18.49801 -69.76847 1049 ft 106 kts 51°
2026-04-22 18:31 18.50250 -69.76422 926 ft 67 kts 38°
2026-04-22 18:32 18.50420 -69.76524 167 ft 30 kts 194°
2026-04-22 18:32 18.50370 -69.76538 116 ft 0 kts 197°
2026-04-22 18:32 18.50280 -69.76822 230 ft 73 kts 288°
2026-04-22 18:33 18.50767 -69.76833 693 ft 84 kts 62°
2026-04-22 18:33 18.50424 -69.76546 669 ft 76 kts 175°
2026-04-22 18:33 18.49894 -69.76651 155 ft 52 kts 194°
2026-04-22 18:33 18.49795 -69.76686 114 ft 0 kts 186°
2026-04-22 18:34 18.49778 -69.76690 130 ft 25 kts 189°
2026-04-22 18:34 18.49941 -69.76932 314 ft 89 kts 356°
2026-04-22 18:34 18.50507 -69.76891 834 ft 65 kts 56°
2026-04-22 18:35 18.50309 -69.76506 303 ft 78 kts 180°
2026-04-22 18:35 18.49956 -69.76618 120 ft 18 kts 186°
2026-04-22 18:35 18.49938 -69.76625 113 ft 0 kts 189°
2026-04-22 18:35 18.49919 -69.76633 123 ft 23 kts 192°
2026-04-22 18:36 18.49956 -69.76912 293 ft 84 kts 348°
2026-04-22 18:36 18.50328 -69.76699 669 ft 55 kts 104°
2026-04-22 18:36 18.50010 -69.76603 151 ft 44 kts 186°
2026-04-22 18:36 18.49935 -69.76633 115 ft 0 kts 181°
2026-04-22 18:37 18.49838 -69.76584 170 ft 34 kts 59°
2026-04-22 18:37 18.49880 -69.76550 162 ft 9 kts 305°
2026-04-22 18:37 18.49896 -69.76569 129 ft 1 kts 301°
2026-04-22 18:38 18.49901 -69.76576 116 ft 0 kts 301°
2026-04-22 18:38 18.49916 -69.76569 147 ft 24 kts 329°
2026-04-22 18:38 18.50253 -69.76231 144 ft 98 kts 32°
2026-04-22 18:39 18.50179 -69.76532 149 ft 30 kts 190°
2026-04-22 18:39 18.50178 -69.76662 139 ft 51 kts 284°
2026-04-22 18:39 18.50213 -69.76766 129 ft 3 kts 289°
2026-04-22 18:39 18.50218 -69.76775 117 ft 0 kts
2026-04-22 18:40 18.50219 -69.76792 139 ft 7 kts 343°
2026-04-22 18:40 18.50261 -69.76803 119 ft 1 kts 344°
2026-04-22 18:40 18.50261 -69.76804 117 ft 0 kts 345°